Probability
26 26 29 23 23 45 52 55 52 55 61 61 58 48 45 45 42 45 48 45 45 52 55 42 55 52 55 58 48 45 45 35 39 39 23 26 26 26 32 35 32 23 19
35 35 35 35 23 48 55 55 58 58 61 65 65 61 42 32 42 45 48 52 52 48 42 48 39 45 65 52 48 52 52 42 32 32 26 23 26 39 16 32 29 19 23
29 39 39 35 35 52 55 42 61 65 61 58 48 48 58 48 45 48 55 52 48 48 48 48 45 52 45 42 52 48 48 35 45 39 39 23 29 29 26 32 26 32 32
23 29 35 39 35 45 48 55 65 61 65 61 55 45 52 42 45 42 58 61 52 52 48 48 55 52 45 52 42 35 45 52 48 39 45 39 32 35 29 26 26 42 39
19 23 39 39 29 26 35 48 58 61 58 58 61 58 55 48 45 48 58 55 48 52 48 52 45 48 48 45 45 45 42 45 45 42 29 35 42 32 29 26 23 39 32
39 35 39 35 29 23 35 45 55 61 58 55 58 58 58 58 58 61 52 45 48 52 45 48 48 45 45 48 48 48 45 45 45 48 45 35 29 32 29 29 42 35 23
29 35 42 42 42 32 26 39 55 61 58 58 55 55 55 55 58 55 55 48 52 48 52 45 48 48 48 45 48 48 48 45 45 45 39 39 39 39 42 42 35 35 29
35 35 32 42 42 42 35 45 55 65 61 61 61 61 58 58 55 48 45 45 45 45 45 45 45 45 52 52 52 48 42 45 42 42 39 39 39 35 39 35 29 29 23
29 39 32 39 42 42 39 42 52 58 61 58 58 65 61 61 58 48 48 45 45 42 45 45 45 45 48 48 48 45 42 39 45 42 42 42 42 39 32 32 29 29 26
23 32 32 35 39 39 32 39 42 48 55 48 52 52 52 55 52 48 48 45 45 45 45 45 48 48 48 48 45 42 39 45 45 48 45 45 39 42 42 39 32 32 32
26 23 26 32 32 29 29 35 39 42 45 45 45 48 48 48 52 52 48 45 45 45 45 48 39 42 42 45 52 39 35 45 48 39 42 45 52 42 42 39 39 39 35
26 19 23 26 35 29 29 32 35 39 42 45 48 48 48 45 42 48 48 45 45 45 45 52 52 45 39 55 52 48 45 45 42 42 42 48 48 45 45 48 42 45 52
26 26 23 23 29 32 32 32 35 39 39 35 39 42 45 42 35 39 42 42 42 42 45 52 52 45 48 52 52 52 52 48 52 52 52 48 45 48 45 48 45 45 35
32 32 26 23 29 35 35 42 39 42 42 39 39 45 45 39 35 35 39 42 45 48 48 39 45 45 48 42 42 45 42 48 48 45 45 45 45 42 45 45 48 39 42
32 35 32 32 32 32 42 42 35 42 42 42 45 48 42 42 39 39 39 42 42 39 45 45 45 42 45 39 35 35 39 39 45 42 42 42 42 39 39 29 35 39 42
23 29 32 35 35 39 39 42 39 42 48 42 35 35 42 42 42 39 39 39 42 39 42 48 45 45 35 19 16 26 39 39 39 42 45 45 42 32 6 6 10 23 29
26 26 35 35 35 32 42 42 45 42 35 42 32 35 35 39 39 39 39 35 42 42 42 42 39 42 35 13 0 0 32 35 42 42 39 35 32 29 39 26 3 6 6
23 29 26 32 32 32 35 39 35 32 32 35 32 35 39 35 35 39 42 39 39 39 39 39 42 42 29 16 3 0 13 39 39 32 39 39 42 29 29 42 35 32 26
23 29 23 16 26 29 29 32 32 26 29 26 29 29 32 32 32 39 35 39 39 39 42 42 39 39 35 16 3 0 32 32 35 35 39 39 35 23 10 29 35 35 35
26 23 23 23 26 23 23 23 23 19 19 13 16 23 26 26 29 35 32 32 32 32 35 32 32 35 26 13 0 0 23 29 29 32 35 16 26 19 6 29 29 23 26
19 16 19 19 16 19 23 26 26 19 16 13 13 19 26 26 32 32 32 32 32 29 29 32 32 32 19 16 3 0 19 16 16 23 26 19 10 0 0 6 23 23 19
16 16 19 19 13 13 16 19 19 16 19 19 19 19 23 19 16 26 29 26 29 29 26 29 29 23 19 13 0 0 0 6 13 16 16 13 3 0 0 0 10 6 3
19 19 16 10 13 13 19 19 16 16 19 23 26 26 26 26 23 19 26 29 29 26 26 16 16 16 16 10 3 0 0 0 6 13 6 6 3 0 0 0 0 0 3
19 19 16 10 13 16 19 23 16 16 16 19 26 29 26 23 19 19 19 19 19 16 13 10 13 10 16 16 13 10 3 0 0 3 0 0 0 0 0 0 0 3 3
19 23 19 23 19 19 19 13 16 16 19 19 16 16 16 10 13 13 16 16 16 13 13 10 10 13 13 6 6 10 3 6 6 3 6 6 6 6 6 6 10 10 10
16 16 16 16 16 19 16 13 13 13 13 13 13 10 13 10 10 6 6 3 6 3 3 3 3 6 6 3 3 3 3 3 3 3 6 10 10 10 10 10 10 10 6
Height
5905 5903 5901 5899 5897 5896 5894 5892 5891 5890 5889 5888 5887 5886 5886 5886 5886 5886 5886 5886 5886 5886 5886 5887 5888 5888 5889 5890 5891 5892 5893 5893 5894 5894 5894 5894 5894 5894 5894 5893 5893 5893 5893
5906 5904 5902 5900 5899 5897 5895 5893 5892 5891 5890 5889 5888 5887 5887 5887 5887 5887 5887 5887 5887 5887 5887 5888 5888 5888 5889 5890 5890 5891 5892 5892 5892 5893 5893 5892 5893 5892 5892 5891 5891 5891 5890
5906 5904 5903 5901 5899 5897 5896 5894 5893 5892 5891 5890 5889 5888 5888 5888 5888 5888 5888 5888 5888 5888 5888 5888 5889 5889 5889 5889 5890 5890 5891 5891 5891 5891 5891 5891 5891 5890 5890 5889 5889 5888 5888
5905 5904 5903 5901 5899 5898 5896 5895 5894 5892 5892 5891 5890 5889 5889 5889 5889 5889 5888 5888 5888 5888 5888 5888 5889 5889 5889 5889 5889 5890 5890 5890 5890 5889 5889 5889 5889 5888 5888 5887 5887 5886 5885
5905 5904 5902 5901 5899 5898 5896 5895 5894 5893 5892 5891 5891 5890 5889 5889 5889 5889 5889 5888 5888 5888 5889 5888 5888 5888 5888 5888 5889 5889 5889 5889 5888 5888 5888 5888 5887 5886 5886 5885 5884 5883 5882
5904 5903 5901 5900 5899 5897 5896 5895 5894 5893 5892 5891 5891 5890 5890 5889 5889 5889 5889 5888 5888 5888 5888 5888 5888 5888 5887 5888 5888 5888 5887 5887 5887 5887 5886 5886 5885 5884 5884 5883 5882 5881 5880
5903 5902 5900 5899 5897 5896 5895 5894 5893 5892 5892 5891 5891 5890 5890 5889 5889 5889 5888 5888 5888 5888 5888 5888 5888 5887 5887 5887 5886 5886 5886 5886 5885 5885 5884 5884 5883 5882 5881 5880 5879 5878 5878
5901 5900 5899 5897 5896 5895 5894 5893 5893 5892 5891 5890 5890 5889 5889 5889 5888 5888 5888 5888 5888 5887 5887 5887 5887 5886 5886 5885 5885 5884 5884 5884 5883 5883 5882 5881 5880 5879 5878 5877 5876 5875 5874
5899 5898 5897 5895 5894 5893 5892 5891 5891 5890 5890 5889 5889 5888 5888 5888 5887 5887 5887 5886 5886 5886 5886 5885 5885 5884 5884 5883 5883 5882 5881 5881 5880 5880 5879 5878 5877 5876 5875 5874 5873 5872 5871
5896 5895 5894 5893 5891 5890 5889 5889 5888 5888 5888 5887 5887 5886 5886 5886 5886 5885 5885 5885 5884 5884 5884 5883 5883 5882 5881 5880 5880 5879 5878 5878 5877 5876 5875 5874 5873 5872 5871 5870 5869 5868 5868
5892 5891 5890 5889 5888 5887 5886 5886 5885 5885 5885 5885 5884 5884 5884 5883 5883 5883 5883 5882 5882 5881 5881 5880 5880 5879 5878 5877 5876 5875 5874 5874 5873 5872 5872 5871 5869 5868 5867 5866 5865 5864 5863
5888 5887 5886 5885 5884 5883 5882 5882 5881 5881 5881 5881 5881 5881 5881 5880 5880 5880 5880 5879 5879 5878 5878 5877 5876 5875 5875 5874 5873 5871 5870 5870 5869 5868 5867 5866 5865 5864 5862 5861 5860 5859 5858
5883 5883 5882 5881 5880 5879 5878 5877 5877 5877 5877 5877 5877 5877 5877 5877 5877 5877 5876 5876 5875 5875 5874 5873 5872 5871 5870 5869 5868 5867 5866 5865 5864 5863 5862 5861 5860 5859 5858 5856 5855 5854 5853
5878 5877 5877 5876 5876 5875 5874 5873 5873 5873 5873 5873 5872 5872 5872 5872 5872 5872 5872 5871 5871 5870 5869 5868 5867 5867 5865 5864 5863 5862 5861 5860 5859 5858 5857 5855 5854 5853 5852 5851 5850 5849 5847
5873 5872 5872 5871 5871 5870 5870 5869 5869 5868 5868 5868 5867 5867 5867 5867 5867 5867 5866 5866 5866 5865 5864 5863 5862 5861 5860 5859 5858 5856 5855 5854 5853 5852 5851 5850 5849 5848 5847 5845 5844 5843 5841
5867 5866 5866 5866 5866 5865 5865 5864 5864 5864 5863 5863 5862 5862 5862 5862 5862 5861 5861 5860 5860 5859 5858 5857 5856 5855 5854 5853 5851 5850 5848 5847 5846 5845 5844 5843 5842 5841 5840 5838 5837 5835 5834
5861 5860 5860 5860 5860 5860 5859 5859 5859 5859 5858 5858 5857 5857 5857 5856 5856 5855 5855 5854 5853 5852 5851 5850 5849 5848 5847 5846 5844 5843 5841 5840 5839 5838 5836 5835 5834 5833 5832 5830 5829 5828 5826
5855 5854 5854 5854 5854 5853 5853 5852 5852 5852 5852 5852 5851 5851 5851 5850 5849 5849 5848 5847 5846 5845 5844 5843 5842 5841 5839 5837 5836 5835 5833 5832 5831 5830 5828 5827 5826 5824 5823 5822 5821 5819 5818
5848 5848 5848 5847 5847 5847 5846 5846 5845 5845 5845 5845 5845 5845 5844 5843 5842 5841 5840 5839 5837 5836 5835 5834 5833 5832 5831 5830 5828 5827 5825 5824 5822 5821 5820 5819 5817 5816 5815 5813 5811 5809 5808
5841 5841 5841 5840 5841 5840 5840 5839 5839 5838 5838 5838 5837 5837 5836 5836 5834 5833 5832 5830 5829 5828 5827 5825 5824 5823 5822 5821 5819 5818 5816 5815 5813 5812 5811 5809 5808 5807 5805 5803 5801 5799 5798
5834 5834 5834 5834 5833 5833 5832 5832 5831 5831 5831 5830 5830 5829 5829 5828 5826 5825 5824 5822 5820 5819 5818 5817 5815 5814 5813 5812 5810 5809 5807 5805 5803 5802 5801 5800 5798 5796 5794 5792 5790 5789 5787
5826 5826 5826 5826 5826 5825 5825 5824 5824 5824 5823 5823 5822 5822 5821 5820 5818 5817 5815 5813 5812 5810 5809 5808 5806 5805 5803 5802 5800 5799 5797 5795 5793 5791 5790 5789 5787 5785 5783 5781 5779 5777 5775
5819 5818 5818 5818 5818 5817 5817 5817 5816 5816 5816 5815 5815 5814 5813 5811 5810 5808 5806 5805 5803 5801 5800 5798 5797 5795 5794 5792 5790 5789 5787 5785 5783 5781 5779 5777 5776 5774 5772 5770 5768 5765 5763
5811 5811 5811 5810 5810 5810 5809 5809 5808 5808 5808 5807 5806 5806 5805 5803 5802 5800 5798 5796 5794 5793 5791 5789 5787 5786 5784 5782 5780 5778 5776 5774 5772 5770 5768 5766 5764 5762 5760 5758 5756 5753 5751
5803 5803 5803 5803 5802 5802 5802 5801 5801 5800 5800 5799 5798 5797 5796 5795 5793 5792 5790 5788 5786 5784 5782 5780 5778 5776 5774 5772 5770 5767 5765 5763 5761 5759 5757 5755 5753 5751 5749 5746 5744 5741 5739
5795 5795 5795 5795 5795 5795 5794 5794 5793 5793 5792 5791 5790 5789 5788 5786 5785 5783 5782 5779 5778 5776 5773 5771 5769 5767 5765 5762 5760 5757 5755 5753 5751 5748 5746 5744 5741 5739 5737 5734 5731 5728 5726
Wind_Speed
9 9 8 8 8 7 5 5 4 5 4 3 2 2 2 3 3 3 2 2 3 3 4 5 5 6 7 7 8 7 7 8 9 10 9 10 9 9 9 9 10 11 11
8 8 8 8 7 7 6 5 4 4 3 3 2 2 2 2 3 3 2 2 2 3 3 3 3 4 5 6 7 7 7 7 8 8 9 9 9 9 10 10 10 11 11
7 8 8 7 6 6 6 6 5 4 4 2 1 1 1 1 0 1 2 2 2 2 2 2 3 3 4 5 5 6 7 7 7 8 8 9 9 10 10 10 10 10 11
8 8 8 7 6 6 6 6 5 5 4 2 1 1 1 1 1 1 1 1 2 2 2 3 3 3 3 4 4 5 6 7 7 8 8 8 9 10 10 11 11 11 11
8 7 8 8 7 6 6 6 5 4 4 3 3 3 3 2 2 2 2 3 3 2 3 3 3 3 4 4 5 6 6 6 7 7 8 9 10 11 11 12 13 13 12
9 8 8 8 7 6 6 6 5 5 4 4 4 3 3 3 3 3 3 3 3 3 3 4 4 4 4 5 5 6 6 7 7 8 9 9 10 11 12 12 13 13 13
9 9 9 9 8 7 6 6 6 5 4 5 4 4 4 4 4 4 4 4 4 4 4 5 6 6 6 6 7 7 8 8 9 10 11 12 13 13 13 14 14 14 14
10 9 10 10 9 8 7 7 7 7 6 6 6 6 6 6 5 5 5 5 6 6 6 6 7 8 8 8 9 9 9 10 11 12 12 13 13 13 13 14 15 15 15
11 11 11 11 11 11 10 9 9 8 8 8 8 8 7 8 7 7 7 7 7 8 8 8 9 9 9 10 10 11 11 12 12 13 13 13 14 15 16 16 17 16 16
12 12 12 12 12 12 12 11 11 10 10 10 10 10 10 10 9 9 9 9 9 10 10 11 11 11 12 12 13 13 13 13 14 14 15 15 16 16 17 17 17 17 17
14 14 14 13 13 13 13 13 13 12 12 12 12 12 12 12 12 11 11 12 12 12 13 13 13 13 14 14 15 16 16 16 16 17 17 17 17 17 18 18 18 18 18
15 16 15 15 15 14 14 15 15 14 14 14 15 15 14 14 14 13 14 14 15 15 15 16 16 16 16 16 16 17 17 18 18 18 18 18 18 18 19 19 20 19 19
17 17 17 17 17 16 15 15 16 15 16 16 17 17 17 16 16 16 16 16 16 17 17 17 17 18 18 19 19 19 19 20 20 20 20 20 20 20 20 20 20 21 21
19 19 18 18 18 18 17 16 16 17 18 18 18 18 18 19 19 18 18 18 18 18 19 19 19 19 20 21 21 22 22 22 22 22 22 21 22 21 22 22 22 22 22
20 20 20 20 20 19 18 18 17 18 18 18 18 18 19 20 20 20 21 21 20 21 21 21 22 22 23 23 23 24 24 24 24 24 24 24 24 24 24 24 24 24 25
21 21 21 21 20 20 20 20 19 19 19 19 20 20 20 21 21 22 23 23 23 24 24 24 25 25 25 25 25 25 26 26 27 26 27 27 27 26 26 27 27 27 28
22 22 22 22 22 22 22 22 21 21 21 21 21 21 22 22 22 23 23 24 25 26 26 27 26 26 27 27 27 28 28 29 29 29 29 28 29 29 29 29 29 30 30
24 24 23 23 23 23 23 23 23 22 21 21 21 22 23 23 24 24 25 26 27 28 28 28 28 28 28 29 30 30 31 31 30 30 29 30 30 30 31 31 31 32 32
23 23 23 23 23 23 24 24 24 23 22 22 23 24 24 25 26 27 27 28 28 29 30 30 30 30 30 31 32 32 32 32 32 31 31 31 31 32 33 34 34 34 34
24 24 24 24 23 23 24 25 24 24 24 24 24 25 25 26 26 27 28 29 29 30 30 31 31 32 32 33 33 34 33 33 33 33 33 33 34 34 35 35 36 36 36
24 25 25 24 24 25 26 25 25 25 25 25 25 26 26 27 27 28 29 29 30 30 31 32 32 33 33 34 34 34 35 35 35 34 34 35 35 36 36 36 37 37 37
25 25 25 25 25 26 26 26 25 25 25 25 26 26 27 28 28 29 29 29 30 30 31 32 33 33 33 34 34 34 35 35 35 35 36 37 37 37 38 38 38 38 39
26 26 25 25 25 24 25 25 25 25 26 26 27 27 27 28 28 29 30 30 30 31 31 32 33 33 33 34 34 35 35 36 36 37 37 38 38 38 39 39 39 40 40
25 25 25 24 25 25 25 25 24 25 25 26 27 28 28 29 29 30 30 30 30 30 31 31 31 32 32 33 34 34 34 35 36 37 37 37 37 37 38 39 40 41 42
25 25 25 25 25 24 24 24 24 24 25 26 27 28 28 29 30 30 30 31 30 31 31 32 32 32 32 33 34 34 35 36 37 36 37 37 37 38 38 39 40 41 42
25 24 24 24 23 24 24 23 23 24 24 25 25 27 28 29 29 29 30 30 31 31 32 32 33 33 33 34 34 34 34 35 36 37 37 37 37 37 38 39 40 41 41
Wind_Direction
8 8 11 16 19 20 23 29 34 36 31 42 64 96 121 126 140 151 158 151 155 171 185 188 194 202 206 210 216 221 227 234 239 241 244 249 252 254 255 261 265 263 261
357 356 359 4 9 12 14 18 18 15 14 23 48 69 98 142 164 180 185 197 188 177 185 184 191 207 215 219 222 226 231 236 240 242 248 252 254 256 260 261 261 264 264
340 343 346 351 356 1 5 11 11 1 346 340 20 53 80 63 127 157 183 193 192 193 188 196 196 214 223 224 228 228 228 237 247 253 258 262 260 264 262 267 267 265 263
325 328 333 337 340 345 351 359 4 1 343 325 319 319 317 325 318 294 242 241 233 229 228 219 219 232 238 232 226 232 240 246 252 257 264 265 267 268 267 273 272 272 271
322 322 322 325 328 332 338 344 350 350 340 331 313 288 282 287 294 286 262 261 260 248 247 247 248 247 249 245 242 247 250 255 258 265 271 273 275 274 274 277 279 278 275
314 315 314 316 320 321 323 327 334 335 323 322 321 300 285 282 283 281 284 280 275 270 273 275 271 271 270 268 266 261 257 263 273 282 283 282 282 281 278 278 279 280 277
305 308 312 314 312 310 312 313 314 311 306 305 303 290 286 285 289 277 274 288 293 294 290 285 277 278 281 282 279 274 268 271 277 282 285 284 282 281 278 280 281 281 276
297 299 303 306 304 296 299 301 299 295 290 290 291 282 276 273 275 276 278 277 279 283 287 286 280 280 280 281 282 282 276 275 277 280 284 286 287 286 283 283 284 282 278
289 291 295 296 295 290 288 290 289 289 286 283 285 278 270 269 270 271 270 271 272 274 277 283 287 291 292 291 287 285 280 279 280 280 283 286 288 286 283 281 280 279 278
285 289 290 289 288 289 285 283 280 282 280 278 276 274 265 265 267 267 266 270 272 274 276 279 282 284 288 289 288 286 287 285 285 284 285 285 284 285 285 282 279 277 277
280 286 288 286 288 290 281 276 275 273 274 273 272 273 268 265 265 265 266 269 272 275 278 279 280 284 285 284 283 283 283 283 282 283 284 285 285 286 286 285 282 279 277
275 280 281 283 286 288 281 273 273 273 270 267 269 269 268 265 266 267 269 271 272 274 278 280 282 282 282 283 282 283 281 281 281 280 280 282 284 285 285 284 283 283 281
272 277 278 279 280 281 280 273 269 270 269 268 270 269 267 265 267 270 272 274 275 277 280 280 282 282 282 283 282 281 280 281 281 280 280 281 282 283 283 283 283 283 284
273 275 277 277 277 276 277 276 271 269 269 269 269 269 268 267 267 270 272 274 275 277 280 281 281 283 284 282 280 280 281 281 281 281 281 281 281 282 283 283 283 283 284
270 271 273 275 275 274 274 275 273 271 271 271 268 268 269 270 270 270 272 273 274 278 279 280 281 283 283 282 282 281 280 280 280 280 280 281 280 280 281 282 282 282 283
268 268 269 271 273 273 271 271 270 271 272 271 270 267 269 270 270 271 273 272 275 277 278 279 280 282 283 283 281 279 279 279 280 281 281 280 278 278 278 279 280 280 282
268 269 269 270 271 271 270 269 269 270 272 274 270 270 272 272 272 275 275 275 275 276 277 278 280 280 282 282 279 279 278 279 280 281 281 281 278 277 278 277 278 280 282
270 271 272 270 270 270 270 269 268 269 271 272 272 274 275 275 274 274 276 277 277 278 278 279 279 279 280 280 282 280 279 280 280 281 280 280 279 278 278 279 279 279 280
269 271 272 271 270 270 271 271 270 269 270 271 271 272 275 275 275 276 278 279 280 279 279 280 279 279 280 280 280 280 279 279 280 280 280 281 280 278 279 281 281 280 280
269 269 269 267 267 269 270 270 270 270 269 270 271 273 276 277 278 278 280 281 281 280 280 281 280 280 280 280 280 279 279 280 280 280 280 281 280 279 280 281 281 281 281
269 268 268 268 270 269 269 269 269 269 269 271 274 275 277 278 279 279 280 281 281 280 280 280 281 281 280 279 279 279 279 280 281 280 280 281 281 281 280 280 281 281 281
270 267 268 268 271 270 269 268 267 269 270 272 274 276 278 279 281 281 280 281 280 280 281 281 281 281 280 279 280 280 281 282 281 280 280 280 280 280 280 281 282 282 281
272 271 269 269 271 271 270 270 270 269 270 271 273 276 278 280 282 284 283 281 281 280 280 280 280 281 281 280 281 281 282 283 283 282 282 282 282 281 280 281 282 282 282
272 272 270 271 272 271 272 272 271 271 272 273 275 277 279 281 283 284 284 284 283 282 283 282 283 284 283 282 283 283 283 284 283 283 282 283 283 283 283 283 283 282 282
270 270 270 270 271 271 273 273 274 274 275 275 276 277 280 283 284 284 284 284 284 284 285 286 288 287 286 285 285 285 284 284 284 283 283 283 284 285 285 285 285 284 284
271 270 269 269 269 269 270 272 274 276 277 276 277 278 280 283 284 284 284 284 284 285 287 288 290 289 289 289 288 289 288 286 287 285 284 285 286 286 287 287 287 287 285